User: anonymous   Login
Location: Unspecified
(0.0000°N, 0.0000°E)
Time: 02:42:06
(UTC+00:00)
Language:

ITAMSAT 1 - Orbit

View from above orbital plane
View from above orbital plane
View from above satellite
View from above satellite

Ground track
Ground track

The orbit data is extracted from the following two-line orbital elements,

1 22826U 93061D   17205.43906613 -.00000010 +00000-0 +13705-4 0  9998
2 22826 098.8093 171.5625 0008303 206.7460 153.3294 14.30330281242904
Epoch (UTC): 24 July 2017 10:32:15
Eccentricity: 0.0008303
inclination: 98.8093°
perigee height: 784 km
apogee height: 796 km
right ascension of ascending node: 171.5625°
argument of perigee: 206.7460°
revolutions per day: 14.30330281
mean anomaly at epoch: 153.3294°
orbit number at epoch: 24290

The dashed part of the orbit path shows where the satellite is in the earth's shadow,  

DLR